Bedford, Massachusetts, United States (01730)
Lat: 42.49N, Lon: 71.28W
Wx Zone: MAZ005
Local Info
Past Weather Observations for Monday, December 15, 2014

NOTE: This archive is for the closest National Weather Service station to Bedford. Information may differ from the station used for current weather conditions.

Click here for Long-term Archive

Time Weather Temperature Dewpoint Humidity Pressure Winds Precip Visibility
23:56
Overcast
27°F / -3°C 27°F / -3°C 100% 30.15 in
(1021 mb)
Calm - 10SM
23:03
Mostly Cloudy
25°F / -4°C 25°F / -4°C 100% 30.15 in
(1021 mb)
Calm - 10SM
22:56
Partly Cloudy
27°F / -3°C 25°F / -4°C 93% 30.15 in
(1021 mb)
Calm - 10SM
21:56
Clear
27°F / -3°C 25°F / -4°C 93% 30.12 in
(1020 mb)
Calm - 10SM
20:56
Clear
25°F / -4°C 25°F / -4°C 100% 30.12 in
(1020 mb)
Calm - 10SM
19:56
Clear
27°F / -3°C 25°F / -4°C 93% 30.12 in
(1020 mb)
Calm - 10SM
18:56
Clear
28°F / -2°C 27°F / -3°C 93% 30.12 in
(1020 mb)
Calm - 10SM
17:56
Clear
30°F / -1°C 27°F / -3°C 86% 30.09 in
(1019 mb)
Calm - 10SM
16:56
Clear
36°F / 2°C 27°F / -3°C 70% 30.06 in
(1018 mb)
SE 3.5 mph
(SE 6 kph)
- 10SM
15:56
Clear
39°F / 4°C 27°F / -3°C 61% 30.06 in
(1018 mb)
NE 3.5 mph
(NE 6 kph)
- 10SM
14:56
Clear
41°F / 5°C 27°F / -3°C 57% 30.04 in
(1017 mb)
Calm - 10SM
13:56
Clear
43°F / 6°C 27°F / -3°C 53% 30.04 in
(1017 mb)
Calm - 10SM
12:56
Clear
43°F / 6°C 27°F / -3°C 53% 30.04 in
(1017 mb)
N 5.8 mph
(N 9 kph)
- 10SM
11:56
Clear
39°F / 4°C 27°F / -3°C 61% 30.04 in
(1017 mb)
N 5.8 mph
(N 9 kph)
- 10SM
10:56
Clear
37°F / 3°C 28°F / -2°C 70% 30.04 in
(1017 mb)
NNW 6.9 mph
(NNW 11 kph)
- 10SM
09:56
Clear
36°F / 2°C 28°F / -2°C 75% 30.04 in
(1017 mb)
NW 11.5 mph
(NW 19 kph)
- 10SM
08:56
Clear
34°F / 1°C 28°F / -2°C 81% 30.04 in
(1017 mb)
NNW 3.5 mph
(NNW 6 kph)
- 10SM
07:56
Clear
25°F / -4°C 23°F / -5°C 93% 30.01 in
(1016 mb)
Calm - 10SM
06:56
Clear
23°F / -5°C 21°F / -6°C 93% 29.98 in
(1015 mb)
Calm - 10SM
05:56
Clear
25°F / -4°C 21°F / -6°C 86% 29.98 in
(1015 mb)
Calm - 10SM
04:56
Clear
25°F / -4°C 21°F / -6°C 86% 29.95 in
(1014 mb)
Calm - 10SM
03:56
Clear
25°F / -4°C 23°F / -5°C 93% 29.95 in
(1014 mb)
SSW 4.6 mph
(SSW 7 kph)
- 10SM
02:56
Clear
25°F / -4°C 23°F / -5°C 93% 29.92 in
(1013 mb)
SSW 4.6 mph
(SSW 7 kph)
- 10SM
01:56
Clear
25°F / -4°C 25°F / -4°C 100% 29.92 in
(1013 mb)
SSW 3.5 mph
(SSW 6 kph)
- 10SM
00:56
Clear
27°F / -3°C 25°F / -4°C 93% 29.92 in
(1013 mb)
SSW 3.5 mph
(SSW 6 kph)
- 10SM
Time Weather Temperature Dewpoint Humidity Pressure Winds Precip Visibility


Weather for websites

WeatherForYou.com, LLC is not responsible for any damages or problems caused by this service. Current weather conditions are obtained from the closest station including government and personal stations which may have varying degrees of accuracy. Weather forecasts are derived from the NOAA NDFD. Like all things, this site belongs to Jesus Christ... He just trusts me to maintain it. If you have any questions or comments email webmaster@weatherforyou.com

Copyright © 2014, WeatherForYou.com LLC. All rights reserved.